RH
100 99 97 94 93 90 86 83 81 79 79 80 81 82 83 85 90 92 87 88 93 96 99 100 98 96 99 103 106 106 102 100 99 97 95 95 96 96 97 98 99 100 102 102 102 103 103 103 103 103 99 96 94 91 90 90 89 89 89 90 92 93 93 90 86 81 71 60 50 43 39 37 36 36 37 38 37 34 32 29 28 27 27 28 28 28
77 76 73 70 69 69 68 68 67 67 66 67 66 66 68 70 74 79 84 87 88 93 96 94 89 83 81 85 88 89 89 90 92 94 96 97 99 100 99 100 103 102 102 102 101 100 100 98 96 94 93 92 92 92 89 84 81 80 82 88 92 93 92 87 80 69 57 49 43 40 37 36 37 37 36 36 33 31 29 28 27 27 27 28 28 29
55 56 57 58 61 62 62 60 57 55 54 54 54 56 61 65 67 72 79 81 79 82 83 77 69 63 62 71 81 89 95 100 101 102 104 103 102 104 101 101 106 105 101 100 98 95 94 94 95 96 96 94 91 86 82 79 80 83 88 93 95 92 86 77 65 55 49 44 40 37 36 36 37 36 35 34 32 31 30 29 29 29 29 29 28 29
53 55 56 55 54 53 52 50 49 50 51 53 54 54 57 58 58 61 64 67 66 68 72 71 67 65 72 85 96 103 106 107 106 105 105 105 104 106 104 103 104 102 99 97 96 95 96 98 98 96 93 88 84 82 82 85 90 93 95 93 88 79 69 60 53 48 44 41 38 36 35 34 34 35 35 35 34 33 32 32 32 31 30 30 29 29
49 49 50 51 51 51 54 54 54 54 56 57 56 55 58 60 63 64 68 73 77 84 91 94 91 89 94 101 103 106 107 107 107 105 104 104 103 104 103 101 101 100 99 99 99 100 100 99 97 95 93 92 92 94 96 97 97 93 87 79 70 62 55 51 47 44 41 38 37 36 35 34 33 33 34 35 36 36 36 36 36 35 34 32 32 31
52 52 53 55 56 57 57 58 58 59 64 70 72 72 75 80 85 87 90 94 98 105 108 108 106 97 91 93 98 103 105 103 102 102 102 102 100 100 100 99 99 98 98 99 100 101 102 102 103 103 103 103 102 100 96 90 83 75 68 61 57 53 50 47 43 41 39 38 37 36 35 35 35 35 34 34 35 36 37 38 38 38 37 37 36 35
57 57 57 59 61 63 67 71 75 77 82 90 95 96 97 98 100 100 99 97 98 102 103 107 109 94 78 78 86 92 95 96 98 100 101 100 99 98 97 96 96 98 100 103 105 107 107 107 105 102 98 93 87 81 74 68 63 60 57 54 52 49 46 43 42 40 39 38 37 36 36 35 35 36 37 37 38 38 39 39 39 39 38 37 36 36
66 69 71 76 80 83 87 91 93 93 95 99 101 102 101 99 97 97 95 93 91 92 97 104 102 85 70 70 77 82 86 88 92 96 97 97 97 96 98 100 103 107 109 109 108 105 101 95 88 81 74 68 64 60 57 56 54 53 52 50 48 46 45 43 42 41 39 38 38 37 37 36 36 37 38 40 41 41 42 43 44 44 44 43 41 40
87 90 91 93 95 96 97 98 98 97 96 96 96 97 97 96 97 96 94 92 86 81 89 98 92 79 69 67 72 77 80 84 89 94 98 100 102 103 105 107 107 105 101 96 90 83 76 69 63 59 55 53 51 50 49 49 49 49 49 49 48 47 46 45 44 43 42 41 40 40 40 40 40 40 41 42 44 45 46 47 47 46 46 45 44 42
98 99 99 100 100 100 99 99 98 96 96 96 96 97 97 96 94 90 86 84 78 71 79 87 85 79 72 69 78 83 84 90 94 94 95 96 96 94 92 88 83 78 71 66 60 56 52 49 47 46 46 46 45 45 46 47 49 51 52 53 53 52 52 51 51 50 49 48 46 46 46 46 46 46 46 46 45 44 43 42 41 41 40 40 41 41
102 104 105 104 104 103 102 101 99 98 98 96 94 91 87 83 78 74 73 72 70 67 73 80 81 80 74 71 80 83 79 77 75 71 69 66 63 60 57 54 51 48 46 44 43 42 42 43 45 46 47 48 49 50 53 56 59 61 62 63 63 61 60 60 59 59 57 55 54 52 51 49 48 46 45 43 42 40 39 39 39 40 41 42 42 42
104 105 107 105 102 99 96 93 89 85 83 79 76 73 70 69 68 67 70 72 71 69 70 72 71 66 60 56 57 56 52 49 46 45 45 43 43 43 42 43 43 44 44 44 45 47 49 51 52 54 55 56 59 62 66 68 70 70 69 67 66 65 64 63 61 60 59 56 53 51 48 46 45 44 44 44 44 44 44 43 43 43 43 43 42 42
99 92 89 87 83 77 72 69 68 65 64 65 67 67 66 65 63 62 64 63 59 55 51 48 46 42 40 41 41 41 42 43 45 47 47 48 49 50 50 51 51 51 51 52 54 56 57 58 59 60 61 62 64 67 69 69 68 67 64 62 60 60 58 57 56 55 54 52 50 48 47 47 47 47 46 46 46 45 45 45 45 45 45 46 46 46
97 84 71 67 65 62 61 63 66 67 67 67 66 63 57 52 44 39 40 38 36 36 36 37 38 37 40 44 45 48 50 52 54 54 54 56 56 56 55 54 54 54 54 55 56 58 58 59 59 59 59 59 60 61 61 60 58 57 56 55 54 54 54 53 53 53 52 51 50 50 49 49 49 48 48 47 46 46 46 46 46 46 46 46 46 46
80 79 71 69 70 67 65 63 59 57 53 49 45 42 39 38 33 30 31 32 34 35 38 41 42 40 42 45 48 52 53 52 53 53 54 55 55 54 53 52 53 53 54 54 54 55 56 56 56 55 55 56 57 57 56 55 53 53 53 52 52 53 53 53 52 52 51 51 51 50 50 50 49 49 48 47 46 45 44 43 42 42 41 40 40 40
71 76 69 63 60 52 47 43 39 37 35 35 37 40 41 42 40 38 36 36 36 36 38 42 42 41 43 45 48 52 52 51 51 51 52 51 50 50 50 50 51 51 52 52 53 55 56 56 55 55 55 56 55 55 54 53 52 52 52 53 54 54 54 54 53 53 53 52 52 51 50 48 47 45 44 42 41 40 39 38 37 36 34 33 31 29
51 56 49 39 36 35 34 35 35 36 37 38 40 43 43 43 42 40 38 39 41 40 40 44 45 46 48 48 50 52 52 52 53 53 52 51 51 51 51 51 51 52 52 53 54 55 55 54 53 54 54 53 53 52 53 53 53 54 56 56 57 56 55 53 52 51 50 49 47 46 45 44 43 42 41 40 39 37 35 32 29 26 23 21 19 17
30 39 45 40 36 37 38 39 40 40 41 42 44 46 47 46 47 46 45 46 47 46 46 48 50 51 53 53 52 52 53 53 53 52 52 51 51 51 51 50 50 50 50 50 51 50 49 49 50 50 50 48 49 50 51 52 53 53 53 52 52 51 49 48 47 47 46 45 45 45 45 45 44 43 40 37 33 28 25 21 18 16 15 14 13 12
31 38 49 49 44 44 45 46 48 48 49 50 51 51 51 49 49 48 47 46 46 45 44 45 45 46 47 48 48 47 47 47 46 45 45 46 46 47 46 46 46 46 47 46 46 45 45 46 46 45 45 46 48 50 51 52 51 51 50 49 49 48 48 48 48 48 49 49 48 47 46 43 39 34 29 25 21 18 17 15 14 13 13 12 12 12
39 40 47 52 50 50 50 49 49 49 48 48 48 46 45 44 42 41 41 41 39 37 36 36 36 38 40 43 45 44 43 42 41 41 42 43 45 46 46 47 48 48 49 49 49 50 50 51 51 51 53 55 57 57 57 55 54 54 53 53 52 52 52 51 50 49 47 43 40 36 31 27 24 21 18 17 16 15 14 14 13 13 12 12 12 11
44 43 44 46 45 44 43 42 41 41 41 42 42 41 40 40 39 38 38 40 40 38 37 36 34 36 41 45 46 46 45 44 44 44 46 48 50 51 53 54 54 56 57 57 57 57 57 57 57 58 60 60 60 59 59 58 57 57 55 54 53 50 47 43 39 34 30 26 23 20 18 17 16 16 15 15 14 13 13 12 12 11 11 10 9 9
38 37 37 38 41 42 42 41 40 41 42 42 41 41 41 41 40 38 39 42 45 47 48 46 42 41 46 50 50 49 49 49 50 52 54 54 55 55 56 56 57 58 59 58 57 57 57 57 57 58 57 56 55 54 52 50 48 45 41 38 34 30 27 24 21 19 18 17 16 16 15 15 15 14 13 13 12 12 11 11 10 9 8 8 7 6
38 38 39 41 44 44 43 43 44 45 46 46 45 44 44 43 43 42 43 45 48 52 55 54 48 45 47 49 48 47 48 49 51 52 52 52 53 54 54 54 53 54 53 52 51 50 50 49 47 46 43 41 38 35 32 30 27 24 22 20 18 18 17 16 16 16 16 15 15 14 14 13 13 13 12 12 11 10 10 8 8 7 7 7 7 7
43 42 43 45 48 48 47 46 47 48 49 49 49 49 49 49 48 47 47 46 46 48 50 50 47 45 45 45 45 45 46 47 47 47 47 46 46 45 44 43 41 39 38 36 34 33 31 29 27 25 23 22 20 19 18 18 17 17 17 16 16 16 15 15 15 14 14 14 13 13 13 13 12 12 11 10 9 8 8 8 7 7 8 7 7 7
48 46 44 43 43 44 44 45 47 50 52 52 51 49 48 47 46 45 46 46 45 45 46 47 45 43 41 40 39 38 37 36 34 33 32 30 29 27 26 24 22 21 20 19 18 18 17 17 17 16 16 16 16 16 16 16 15 15 15 14 14 14 14 14 13 13 13 13 12 12 11 11 10 9 9 8 8 9 8 8 8 8 8 7 7 7
48 46 44 42 41 39 40 41 42 42 44 45 44 43 43 42 43 44 44 44 43 41 39 38 34 31 28 26 24 22 21 20 19 18 18 17 17 16 16 16 15 15 15 15 15 15 15 15 15 15 14 14 14 14 14 14 13 13 13 13 13 13 13 13 12 12 12 11 11 10 10 10 10 9 10 9 9 9 9 8 8 7 7 7 6 6
47 47 47 47 45 42 39 39 38 36 37 39 40 41 41 40 40 38 37 34 31 27 24 22 20 18 16 16 15 15 15 15 15 15 15 15 15 15 15 15 14 14 14 14 14 13 13 13 13 13 13 13 13 13 13 13 13 13 13 13 13 12 12 12 11 11 11 11 11 11 11 11 11 10 10 10 9 9 8 8 7 7 6 6 6 6
48 49 49 49 47 43 40 40 39 38 37 37 36 35 32 30 28 25 23 20 18 17 15 15 15 15 15 15 15 15 15 15 15 15 14 14 14 13 13 12 12 12 12 12 12 12 13 13 13 13 13 13 13 13 13 13 13 12 12 12 12 12 12 12 12 12 12 12 11 11 11 10 10 10 9 9 8 7 7 7 6 6 6 6 6 6
49 48 47 46 46 44 42 42 40 37 35 31 28 24 21 19 18 16 16 16 15 15 15 15 15 15 15 14 14 14 14 14 14 13 13 12 11 10 10 10 11 11 12 12 12 12 12 12 12 12 12 12 12 12 12 12 12 12 12 12 12 12 12 12 12 12 12 11 11 10 10 9 9 9 8 7 7 7 6 7 7 7 7 7 7 6
46 45 43 44 46 45 43 40 36 31 27 22 19 16 15 15 15 15 15 15 14 14 14 14 14 13 13 13 13 13 12 12 12 11 10 9 9 9 9 10 11 11 11 11 11 11 11 11 11 11 11 11 11 11 11 11 11 11 11 11 11 11 11 10 10 10 10 9 9 9 8 8 8 7 7 7 7 7 7 7 7 7 7 7 7 6
44 43 43 44 44 42 37 33 27 22 19 16 15 14 14 14 14 14 14 14 14 14 14 13 13 13 12 12 12 11 11 10 10 9 9 8 8 8 9 9 10 10 10 10 10 10 10 10 10 10 10 10 10 10 10 10 10 10 9 9 9 9 9 9 9 9 8 8 8 8 7 7 7 7 7 7 8 8 8 7 7 7 7 6 6 5
44 44 43 41 38 33 27 23 19 17 15 15 14 14 14 15 15 16 16 15 14 14 13 13 12 12 12 11 11 11 10 10 9 9 8 8 8 8 8 8 9 9 9 9 9 9 9 9 9 9 9 9 9 9 9 9 9 9 8 8 8 8 8 8 8 7 7 7 7 8 8 8 8 9 9 9 8 8 7 7 6 6 6 5 5 5
45 44 39 33 27 22 18 16 15 14 14 14 14 15 15 16 17 16 15 14 12 12 11 10 10 10 10 10 9 9 9 9 9 8 8 8 8 8 8 8 8 8 8 8 8 8 8 9 9 9 9 9 9 10 10 10 9 9 9 9 8 8 8 8 8 8 8 9 9 9 10 10 10 9 9 8 8 7 6 6 5 5 5 5 5 4
43 37 30 23 18 16 14 14 14 14 14 14 14 14 14 14 13 13 11 10 9 8 8 8 8 7 7 8 7 8 8 8 8 8 7 8 8 7 8 8 8 8 8 8 8 8 8 8 8 9 9 9 9 10 9 10 10 9 9 9 9 9 9 9 10 10 10 10 10 10 10 9 9 8 8 7 6 6 6 5 5 5 5 5 5 4
35 27 20 16 14 13 13 13 12 12 13 13 12 12 11 10 10 9 8 7 7 7 7 6 6 6 6 6 6 6 7 7 7 7 7 7 7 7 7 7 7 8 8 8 8 8 8 8 8 8 9 9 9 9 9 9 9 9 9 9 9 9 9 9 9 9 10 9 9 9 8 8 8 7 6 6 6 5 5 5 5 5 5 5 5 4
24 17 14 13 12 12 12 11 11 11 11 11 11 11 10 9 8 7 8 7 7 6 6 6 6 6 6 6 6 6 7 7 7 7 7 7 7 7 7 7 7 7 7 7 8 8 8 8 8 8 8 8 8 9 9 9 9 9 9 9 9 9 9 9 9 9 9 8 8 8 7 7 7 6 6 6 6 6 6 5 5 5 5 5 4 4
16 13 12 12 11 11 11 11 11 12 12 11 10 9 8 8 7 6 6 6 6 6 7 7 7 7 7 7 7 6 7 7 7 7 7 7 7 7 7 7 7 7 7 7 7 7 7 7 8 8 8 8 8 8 9 9 9 9 9 9 9 9 9 9 9 8 8 8 7 7 6 6 6 6 6 6 6 6 5 5 5 5 5 5 5 4
13 12 11 11 11 11 11 11 11 12 11 11 10 9 8 7 6 6 6 6 7 7 7 7 7 7 7 7 7 7 7 8 8 7 7 7 7 8 7 7 7 7 7 8 8 8 8 8 8 8 8 9 9 9 9 9 9 9 9 9 9 9 9 8 8 8 7 7 7 6 6 6 6 5 6 6 5 5 5 5 5 5 5 5 4 4
12 12 11 11 11 11 11 11 11 11 11 11 10 10 9 8 7 7 7 8 8 7 7 8 7 8 8 7 8 8 7 8 8 8 8 8 8 8 8 8 8 8 8 8 8 8 8 8 8 8 8 9 9 9 9 9 9 9 8 9 9 8 8 8 7 7 7 6 6 6 6 6 6 5 6 5 5 5 5 5 5 5 5 5 4 4
12 12 12 12 12 12 12 12 12 11 11 11 11 10 9 9 8 8 8 9 9 8 8 8 7 7 7 7 7 7 7 7 8 8 8 8 8 8 8 8 8 8 8 8 8 8 8 8 8 8 8 8 8 8 9 8 8 8 8 8 8 8 8 7 7 7 7 6 6 6 6 6 6 5 5 5 5 5 4 5 5 5 5 5 4 4
13 13 12 12 12 13 13 12 12 12 11 11 10 9 9 9 9 9 9 9 9 9 8 8 8 8 8 7 7 7 7 7 7 7 7 8 8 8 8 8 8 8 8 8 8 8 8 8 8 7 7 8 8 8 8 8 8 8 8 7 8 7 7 7 7 7 6 7 6 6 6 5 5 5 5 4 4 5 4 4 5 5 5 4 4 3
14 13 12 12 13 13 13 13 13 12 12 11 10 9 9 9 9 9 9 9 9 10 9 9 9 9 9 9 8 8 8 7 7 7 7 7 7 7 7 7 7 7 7 7 7 7 8 7 7 7 7 7 7 7 7 8 7 7 7 7 7 7 7 6 6 6 6 6 6 6 5 5 5 5 4 4 4 4 4 4 4 4 4 4 4 4
14 13 12 13 13 14 14 13 12 11 11 10 10 9 9 9 9 9 9 9 9 10 10 10 10 10 10 10 10 9 9 9 8 8 8 8 7 7 7 7 7 7 7 7 7 7 7 7 7 7 7 7 7 7 7 7 7 7 7 7 7 7 7 6 6 6 6 6 6 6 5 5 5 4 4 4 3 4 4 4 4 5 4 4 4 3
14 14 13 13 14 14 14 14 13 12 11 11 10 10 9 9 9 9 10 10 10 10 10 10 11 11 11 11 11 10 10 10 9 9 9 9 8 8 7 7 7 7 7 7 7 7 7 7 7 7 7 7 7 7 7 7 8 7 7 7 8 7 7 7 7 6 6 6 6 6 5 5 4 4 3 3 4 4 4 4 4 5 4 4 3 3
14 14 14 14 14 14 14 14 13 12 12 11 11 10 10 10 10 10 10 10 10 10 11 11 11 12 12 11 11 10 10 10 10 9 9 9 8 8 7 7 7 7 7 7 7 8 8 8 8 8 8 8 8 8 8 8 8 8 8 8 8 8 8 7 7 6 6 6 5 5 5 4 4 4 3 3 4 4 4 4 5 5 4 4 3 3
15 15 14 14 14 13 14 14 14 13 12 12 11 11 11 10 10 11 11 11 12 12 12 12 12 12 12 12 11 11 10 10 10 10 9 9 9 8 7 7 7 7 7 7 8 8 8 9 9 9 8 8 8 8 8 8 8 8 8 8 7 7 7 6 6 6 6 5 5 5 5 4 4 4 4 3 4 4 4 4 5 5 5 4 3 3
15 14 15 15 14 14 14 14 14 13 12 12 12 12 12 12 11 11 12 12 13 13 13 13 13 13 13 13 12 11 11 10 10 10 9 9 9 8 8 8 7 7 7 8 8 9 9 9 9 9 9 9 9 9 8 8 8 7 7 7 7 7 7 6 6 6 6 5 5 5 5 4 4 4 4 3 3 3 4 4 5 5 5 4 4 3
15 14 15 15 14 14 14 14 14 14 13 12 13 12 12 12 12 12 13 13 14 15 14 14 14 13 13 13 13 12 12 11 11 10 9 9 9 9 8 8 8 8 8 8 9 9 9 10 9 9 9 9 8 8 8 7 7 7 6 7 7 7 7 6 6 5 5 5 5 5 5 4 4 4 4 4 4 4 3 4 4 5 4 4 4 3
16 14 14 14 14 14 14 13 13 13 13 12 12 12 12 12 12 13 14 14 14 15 15 15 15 14 14 13 13 13 12 11 11 10 9 9 9 9 9 8 8 8 8 8 9 9 9 9 9 8 8 8 7 7 7 7 7 6 6 7 7 6 6 6 6 5 5 5 5 5 5 4 4 4 4 4 4 3 3 4 4 5 4 4 4 3
16 15 14 14 14 14 14 13 12 12 12 12 12 12 12 12 12 13 14 14 15 15 15 15 15 15 14 13 13 13 12 11 11 10 9 9 9 9 9 9 9 9 9 9 9 9 9 9 8 7 7 7 7 7 7 7 7 6 6 6 6 6 6 6 5 5 5 5 5 5 5 5 4 4 4 4 4 4 3 3 4 5 5 4 4 4
18 16 15 15 15 15 14 13 13 12 12 12 11 12 12 12 13 14 14 14 15 15 15 15 15 15 15 14 13 13 12 11 11 10 9 9 9 9 9 9 9 9 9 9 9 9 8 8 8 7 7 7 7 7 7 7 7 6 6 6 6 6 6 6 6 5 5 5 5 5 5 5 4 4 4 4 4 4 4 3 3 4 5 5 5 4
Wind_Speed
82 82 83 84 84 85 86 85 85 85 84 83 82 82 82 82 82 84 86 86 87 88 88 90 91 90 90 91 93 94 95 95 96 97 97 97 96 96 95 95 94 94 95 96 97 98 99 99 99 100 100 100 100 100 100 100 100 100 99 99 99 98 98 98 98 98 97 97 96 95 92 88 86 83 81 80 79 78 76 75 74 73 72 70 69 69
81 81 82 82 82 82 82 82 82 81 81 80 80 81 81 82 83 84 85 86 88 89 90 92 92 91 91 92 93 94 94 94 94 94 95 94 94 94 94 95 95 96 97 98 99 99 99 99 99 100 100 100 100 100 100 100 99 99 98 97 97 97 97 97 97 97 97 96 93 89 85 81 80 78 77 77 77 76 75 74 74 73 72 70 70 70
76 76 76 76 76 76 77 78 78 79 79 80 81 81 82 83 84 85 86 88 89 90 92 93 92 90 89 89 89 90 90 90 91 91 92 93 94 95 96 97 98 99 99 100 100 99 99 99 99 100 100 100 101 100 99 98 97 96 96 96 97 97 97 98 97 96 95 92 87 83 80 78 77 77 77 76 76 76 76 76 75 74 74 73 73 72
70 71 71 72 73 74 76 77 78 78 79 80 81 82 83 84 85 85 86 87 88 88 89 89 89 87 86 86 87 88 89 90 91 93 94 96 97 98 99 99 100 100 100 100 99 99 99 99 99 99 99 99 98 97 96 96 95 96 96 97 97 98 98 97 96 94 90 86 83 81 80 79 78 78 78 78 78 78 78 78 79 79 78 77 77 76
68 69 70 72 73 74 75 76 77 77 78 79 81 81 81 82 82 82 83 83 84 84 85 87 87 86 86 88 88 89 90 92 93 95 96 97 98 99 99 100 100 100 100 99 99 98 97 97 97 97 96 96 95 95 95 96 96 97 98 98 98 97 97 95 92 89 86 83 83 82 82 82 81 81 81 81 81 82 82 82 83 84 83 83 82 81
67 69 70 71 72 73 74 75 76 76 76 77 79 79 79 80 81 81 82 83 83 83 85 87 89 89 89 90 90 91 92 93 95 96 97 98 98 99 99 99 99 98 97 97 96 95 94 94 95 95 95 95 95 96 97 97 98 98 98 98 97 95 93 91 88 86 85 85 85 85 85 85 85 85 85 85 85 85 86 87 87 88 88 88 88 87
67 68 69 70 71 72 73 75 76 76 76 76 78 79 80 81 82 82 84 85 85 85 87 89 92 93 91 90 92 92 93 94 95 96 96 97 97 96 96 96 95 95 94 94 94 94 94 95 95 96 96 96 97 97 97 97 97 97 96 95 93 91 90 88 87 87 87 88 88 89 89 89 89 89 89 90 90 90 91 92 92 93 94 94 94 93
67 68 69 70 71 73 74 75 76 76 76 77 78 79 80 82 83 84 85 87 87 88 88 91 95 96 92 90 90 91 91 91 92 93 93 93 93 93 93 93 93 94 94 94 95 95 96 96 96 96 96 96 96 96 96 95 94 93 92 91 90 89 89 89 90 90 91 92 92 92 93 93 93 93 93 94 95 96 96 97 98 99 99 100 100 100
67 68 70 71 72 73 74 75 76 76 77 78 79 80 82 83 85 86 87 89 90 89 89 92 95 94 90 87 86 86 86 87 88 89 90 91 91 92 93 93 94 95 95 96 96 97 97 97 96 96 95 94 94 93 92 91 91 90 90 90 90 91 92 92 93 94 95 96 96 96 97 97 98 98 98 99 100 101 101 102 103 104 105 105 106 106
67 68 69 70 72 73 74 75 76 77 78 79 81 82 84 85 87 87 88 88 89 87 85 87 90 89 87 84 83 84 84 86 87 88 89 91 92 93 93 94 95 95 96 96 96 96 95 94 93 93 92 91 90 90 89 90 90 91 92 93 94 95 96 97 98 99 100 101 101 101 101 102 103 103 104 104 105 106 106 106 106 106 106 106 106 106
67 68 69 71 72 74 75 76 78 79 80 81 82 84 84 85 85 84 83 83 83 81 81 83 85 86 85 83 83 85 86 87 88 88 90 90 91 91 92 92 92 92 92 92 92 91 91 90 90 90 90 90 90 91 91 92 93 95 96 97 99 99 100 101 103 104 105 106 106 107 107 107 108 108 108 108 108 108 107 106 106 105 105 106 106 107
67 68 70 72 73 75 76 78 79 79 80 80 80 80 80 80 80 79 78 79 80 79 80 82 83 85 84 82 83 84 84 84 85 85 85 86 86 86 87 87 87 88 88 89 89 89 90 90 91 92 92 93 94 95 96 97 98 100 101 102 103 104 105 106 107 109 110 110 111 111 111 110 110 109 109 109 108 108 108 107 107 107 108 109 109 110
69 71 72 73 74 75 75 75 75 75 75 75 75 76 77 77 77 76 76 78 78 79 79 80 81 81 79 79 79 79 79 79 80 81 82 83 84 85 85 87 88 89 90 90 91 92 93 94 95 96 97 97 98 99 101 102 103 105 106 107 108 108 109 110 111 112 112 112 112 112 111 111 111 110 110 110 110 110 110 110 111 111 111 112 113 114
69 72 74 73 73 73 71 71 71 71 72 73 74 76 77 78 78 75 74 74 74 74 74 74 75 75 74 75 77 77 78 79 81 83 84 86 87 88 89 90 92 93 94 95 96 97 98 99 100 101 101 102 103 104 105 106 107 108 109 109 110 110 111 111 112 112 112 112 112 112 112 112 113 113 113 113 113 113 113 114 114 115 115 116 117 118
63 66 69 69 69 69 70 70 70 71 71 72 73 74 74 75 75 73 70 70 69 70 70 73 76 76 76 78 80 81 83 84 86 87 89 90 91 93 94 95 96 97 97 98 99 100 101 102 103 103 104 104 105 106 107 107 108 108 109 109 110 110 111 112 112 113 113 114 114 115 115 115 116 116 117 117 117 117 117 118 118 119 119 120 120 121
56 60 64 66 67 68 68 68 68 67 68 67 68 69 70 72 74 74 73 73 73 73 73 76 79 80 81 82 83 85 87 88 90 91 92 93 94 95 96 96 97 98 99 99 100 101 102 103 103 104 104 105 106 106 107 108 109 109 110 111 112 112 113 114 115 115 116 117 117 118 118 119 119 119 120 120 121 121 121 121 121 121 121 121 121 121
53 56 61 63 64 64 64 64 64 65 67 67 69 71 73 75 77 78 78 78 79 79 77 78 80 81 83 84 84 86 88 89 91 92 93 94 95 95 96 97 98 99 99 100 101 102 103 104 104 105 106 107 108 108 109 110 111 112 113 114 114 116 116 117 117 118 119 119 120 121 121 122 122 123 123 124 124 124 123 123 122 121 121 120 119 119
49 49 55 60 61 63 64 65 67 68 70 71 72 74 76 77 78 80 80 79 80 81 79 78 80 81 83 85 85 87 89 90 92 93 94 95 96 97 98 99 99 100 101 102 103 104 105 106 106 108 108 109 110 111 112 113 114 115 115 116 117 118 119 120 120 121 122 123 124 124 125 126 126 126 126 126 125 124 123 122 121 120 118 117 116 116
50 48 53 60 62 64 66 66 67 69 71 72 73 75 76 77 77 79 80 80 81 81 80 79 79 81 84 86 88 89 91 92 93 94 95 97 98 99 101 101 102 103 104 105 106 107 108 108 109 110 111 112 113 114 115 116 117 118 119 120 121 122 123 124 125 125 126 127 128 128 128 128 128 127 126 125 124 123 121 120 119 118 117 116 115 114
54 51 52 57 61 62 64 64 65 67 69 72 75 76 77 78 79 80 82 84 85 85 84 83 82 84 87 90 92 93 95 96 97 98 99 100 102 103 104 105 106 107 108 109 110 111 112 113 114 114 115 116 117 119 120 121 122 123 124 125 126 127 128 128 128 129 129 129 128 128 127 126 126 125 124 122 121 120 120 118 117 116 115 114 113 112
53 52 52 55 61 64 65 66 67 69 71 74 77 79 81 82 84 84 85 88 91 91 91 91 89 88 91 94 97 98 99 100 101 102 103 104 106 107 108 109 110 111 112 113 114 115 116 117 118 119 120 121 122 123 124 125 126 127 128 129 129 129 129 129 128 127 126 126 125 124 123 122 122 121 121 120 119 118 117 115 114 112 111 110 110 109
55 55 56 59 64 68 70 71 73 75 77 79 81 83 84 86 87 89 88 90 94 96 97 99 98 95 95 98 101 102 103 104 105 106 107 108 109 110 112 113 114 114 116 117 118 119 120 121 122 123 124 124 125 126 126 127 127 127 127 127 126 126 125 125 124 123 123 122 122 121 121 120 119 119 118 117 116 114 113 112 111 109 108 108 107 107
61 62 62 65 68 71 73 74 76 78 80 82 85 86 87 89 91 92 92 93 94 96 98 102 103 101 100 102 104 105 106 107 108 110 111 112 113 114 115 116 117 118 119 119 120 121 121 122 123 123 123 123 123 123 123 124 123 123 123 123 122 122 121 121 121 120 120 120 119 118 118 117 116 115 114 113 112 111 110 109 109 108 107 106 106 105
67 67 66 67 69 72 75 76 78 80 83 85 87 88 90 92 93 95 96 97 98 98 100 104 106 105 105 107 108 108 109 110 111 112 113 114 114 115 116 116 117 117 117 118 118 118 118 119 119 119 119 118 118 119 119 119 119 119 119 119 119 119 118 118 118 117 116 116 115 114 114 113 112 112 111 111 110 109 109 108 107 107 106 106 105 104
69 70 70 70 70 71 73 74 76 78 81 84 87 89 92 93 95 97 99 101 102 102 104 106 108 108 108 108 109 109 109 109 110 110 111 111 112 112 113 113 113 113 113 114 114 114 114 114 115 115 114 114 115 115 115 116 116 116 116 115 115 115 114 114 113 113 112 112 111 111 110 110 110 110 109 109 109 108 108 107 107 106 105 104 104 103
71 73 75 76 77 76 75 76 77 78 80 83 87 90 93 95 97 99 100 102 103 104 104 106 107 106 106 106 106 106 106 106 107 107 107 108 108 109 109 109 110 110 110 110 110 110 110 111 111 111 111 111 111 111 112 112 112 112 111 111 111 110 110 110 110 110 109 109 109 109 109 109 109 109 108 108 108 107 107 106 105 104 104 103 102 101
73 76 78 81 84 84 83 84 86 87 87 88 90 92 94 95 97 98 99 101 102 102 102 103 104 104 104 104 104 104 104 104 105 105 105 105 106 106 106 106 106 107 107 107 107 107 107 108 108 107 107 107 107 108 108 108 108 108 108 108 108 108 108 108 108 108 108 108 107 107 107 108 108 107 107 107 106 105 105 104 104 103 102 101 100 100
75 77 79 82 87 90 90 91 93 94 94 94 93 94 94 94 95 96 97 98 99 100 100 101 102 102 102 103 103 103 103 103 103 103 103 103 103 104 104 104 104 104 104 104 103 103 104 104 104 103 104 104 104 104 105 105 105 105 106 106 106 106 106 106 107 107 107 106 106 106 106 106 106 106 105 104 104 103 103 102 102 101 101 100 99 99
77 79 81 84 89 93 94 96 97 97 97 96 95 95 94 93 94 95 95 96 97 98 99 99 99 99 99 99 100 100 100 100 100 100 100 101 101 101 101 100 100 100 100 100 100 100 100 100 100 100 100 101 101 102 102 103 103 104 104 104 104 104 105 105 105 105 105 105 105 104 104 104 104 104 103 102 102 101 101 101 100 100 99 98 98 98
80 83 85 87 90 94 95 97 97 97 97 96 96 95 94 93 93 94 93 93 94 95 96 96 96 96 95 96 96 96 96 97 97 97 98 98 98 97 97 96 96 96 96 96 96 96 97 97 97 97 98 99 99 100 100 101 102 102 103 103 103 103 103 103 104 104 104 103 103 103 102 102 102 102 101 101 100 100 99 99 98 98 97 97 96 96
85 87 89 90 92 94 95 95 95 95 95 95 95 94 92 92 92 92 91 91 91 92 93 94 94 94 94 94 95 95 95 95 95 96 96 96 95 95 94 94 94 93 94 94 94 95 95 95 96 96 97 98 98 99 100 100 101 101 102 102 102 102 102 102 102 102 102 102 101 101 100 100 100 100 100 100 99 99 98 97 97 96 95 94 94 93
89 91 92 92 92 92 92 91 91 92 92 92 92 91 89 89 89 89 89 89 90 90 90 91 91 92 92 93 93 93 94 94 93 94 94 94 94 94 93 93 93 93 94 94 94 95 95 96 96 97 97 98 99 99 100 101 101 101 101 101 101 101 101 101 101 101 100 100 100 100 100 99 100 100 99 99 98 97 97 96 95 94 93 92 92 92
92 93 92 91 90 89 88 88 87 88 88 87 87 86 84 83 82 82 83 85 86 87 86 85 86 86 86 87 87 87 88 89 90 91 91 91 91 92 92 92 92 92 93 93 94 94 95 95 96 96 97 97 98 99 100 100 101 101 101 101 101 101 101 101 101 100 100 100 100 100 99 99 99 98 98 97 96 96 95 94 93 92 91 91 91 91
93 93 91 89 87 85 84 83 83 83 82 82 81 80 78 77 75 74 76 77 78 78 79 78 78 79 79 80 80 80 81 82 84 85 86 86 87 88 88 89 89 89 90 91 91 92 92 93 93 94 94 95 95 96 97 97 98 98 99 99 99 99 100 100 100 99 99 99 98 98 97 97 96 96 95 95 94 94 93 92 91 90 90 89 89 88
92 90 88 86 84 82 81 79 78 77 77 76 75 75 74 73 71 71 73 75 74 73 74 74 74 75 75 76 76 77 77 77 79 80 81 81 82 83 84 84 85 85 86 87 87 88 89 90 90 90 91 91 92 92 93 94 95 95 96 96 96 96 96 96 96 96 96 95 95 95 94 94 94 93 93 92 92 92 91 90 89 88 87 87 87 85
88 86 84 82 81 79 77 76 75 75 74 74 74 73 73 73 71 70 72 74 74 73 73 74 74 75 75 75 76 76 76 76 77 78 78 79 79 80 81 81 82 82 82 83 84 85 86 86 87 87 88 89 89 90 91 91 92 92 93 93 93 93 93 93 93 93 93 94 93 93 92 92 91 91 90 90 90 89 89 87 86 86 85 84 84 83
85 83 81 80 78 77 75 75 75 75 74 74 74 74 74 73 72 70 69 71 71 71 71 72 72 73 74 74 74 75 74 75 76 76 77 78 78 79 80 80 81 81 81 82 82 83 83 84 84 85 85 86 87 88 89 89 90 90 91 91 91 91 91 91 92 92 92 92 91 91 90 89 88 88 87 87 86 86 86 85 84 83 82 81 81 80
83 81 80 79 79 78 77 75 74 73 73 74 75 75 76 75 74 73 73 73 72 71 71 71 70 71 71 72 72 73 72 73 74 74 75 75 77 77 78 79 79 80 80 80 81 82 82 82 83 83 83 84 85 85 86 87 88 88 88 89 89 89 89 89 89 89 89 89 88 88 87 86 85 84 83 83 84 83 83 82 81 80 79 79 77 76
82 81 80 79 79 79 78 77 76 75 75 75 76 76 77 77 77 76 76 75 75 74 73 72 71 71 71 71 71 71 70 70 72 72 72 73 74 75 76 77 77 78 79 79 79 80 80 81 81 81 81 82 82 83 83 84 85 85 86 86 86 87 87 87 87 87 87 86 86 85 84 83 83 82 81 81 81 81 80 78 77 77 77 77 75 73
81 80 80 79 79 78 78 77 77 77 76 76 76 76 76 77 78 78 77 77 77 77 76 75 74 73 72 72 71 71 70 69 70 71 71 72 72 73 73 74 75 75 76 76 77 77 78 78 78 79 79 79 80 80 81 81 82 83 83 83 84 84 84 84 84 84 84 84 84 83 83 82 81 81 80 79 78 78 77 75 73 74 75 75 74 71
81 80 80 79 79 78 78 77 76 77 77 75 75 75 75 75 76 77 77 77 76 77 77 77 76 76 75 74 73 73 72 71 71 71 71 71 71 72 72 72 73 73 74 74 74 75 75 76 76 76 76 76 77 77 78 79 79 80 80 80 80 81 81 81 82 82 82 82 82 81 81 80 79 78 77 76 75 75 74 72 71 71 72 72 71 69
81 80 80 79 79 78 78 76 74 74 74 74 73 73 73 73 73 74 75 75 75 75 75 76 76 76 76 76 75 75 74 74 73 72 72 72 72 72 72 72 72 72 72 72 72 72 72 73 73 74 73 73 74 74 75 76 76 77 77 77 78 78 78 78 78 78 78 79 79 78 78 78 77 76 75 74 73 72 71 70 69 68 68 68 68 65
82 81 80 80 79 78 78 77 76 74 75 75 74 74 74 73 73 73 73 74 73 73 72 73 73 73 74 74 75 75 75 75 75 74 74 74 74 74 73 72 72 72 72 72 71 71 71 71 72 72 72 71 72 72 73 73 74 74 74 74 75 75 76 76 75 75 75 75 76 76 76 76 75 74 73 71 70 69 68 67 66 65 65 65 64 61
83 83 82 81 80 79 79 80 80 79 78 78 78 77 77 76 76 75 74 74 73 72 71 71 72 72 73 73 73 74 74 74 74 74 74 74 74 75 75 74 74 73 73 72 72 71 71 71 71 71 71 71 71 71 71 71 72 72 72 72 72 73 73 73 73 73 73 73 73 73 74 74 73 72 71 69 67 66 65 63 62 61 62 63 61 58
83 83 83 81 80 80 80 80 81 80 80 80 80 80 79 79 78 77 77 76 75 74 73 72 71 72 72 72 72 72 72 72 73 73 73 73 74 74 75 74 74 73 72 72 71 71 70 70 70 70 70 70 70 70 70 69 69 70 70 70 70 70 71 71 71 71 71 71 71 72 72 72 72 70 68 66 64 62 61 60 59 59 60 62 60 56
82 82 82 81 80 80 80 81 82 82 81 81 81 81 81 80 80 79 78 77 76 75 74 73 72 71 71 71 72 72 72 73 73 73 73 74 74 75 75 74 74 73 72 71 70 69 69 69 69 69 69 69 69 69 69 68 68 67 67 68 68 69 69 69 70 70 70 69 70 70 70 70 70 68 66 64 62 60 58 56 56 56 58 61 60 55
82 81 82 82 82 81 81 82 83 83 83 82 82 83 82 82 81 80 79 77 76 75 74 73 72 72 72 72 73 74 74 74 75 75 74 74 75 75 75 75 74 73 72 70 69 68 68 68 68 68 68 68 68 68 68 68 67 66 66 66 66 67 68 68 68 68 68 68 67 68 68 68 67 66 65 63 61 59 56 54 53 53 55 58 59 54
82 81 81 82 82 82 82 82 83 84 84 84 83 83 83 82 82 81 80 78 77 76 75 75 74 74 73 73 74 75 75 76 76 76 75 75 75 75 75 75 74 73 72 70 69 68 67 67 67 67 67 67 67 67 67 67 67 66 65 65 65 66 66 67 67 67 66 66 66 66 66 66 65 64 63 62 60 58 55 53 52 51 52 55 56 53
83 82 82 82 83 83 83 82 81 82 83 83 83 83 83 82 81 81 80 79 78 77 76 76 76 76 75 75 75 75 76 77 77 77 76 75 75 75 75 74 73 72 71 70 69 67 66 66 66 66 66 66 66 66 66 67 66 65 64 64 64 64 65 66 67 66 66 65 65 65 65 65 64 62 61 60 59 57 54 50 48 49 51 54 54 51
84 83 83 83 83 84 84 84 83 82 82 83 83 83 83 83 82 81 80 80 79 78 78 77 77 77 77 77 76 76 77 78 78 78 78 77 75 75 75 74 73 72 71 70 69 68 66 66 66 66 65 65 65 65 65 65 65 64 64 63 63 64 64 65 66 66 66 65 64 64 64 63 62 61 59 58 57 57 54 49 43 42 47 52 54 52
86 85 85 85 85 86 86 87 86 85 85 85 85 85 86 85 84 83 82 81 80 80 79 79 78 78 79 79 78 78 78 79 79 79 79 78 76 75 74 74 73 72 72 70 69 68 67 67 66 66 66 65 65 64 64 64 64 64 64 63 63 64 64 64 65 65 65 64 63 63 62 62 61 59 58 56 55 54 54 51 44 38 38 44 51 54
Wind_Direction
273 274 275 276 277 278 279 279 280 280 280 281 281 281 281 281 281 281 282 282 282 282 283 283 283 284 284 285 285 285 285 285 285 286 286 286 286 286 286 286 286 286 286 286 286 286 286 287 287 287 287 287 287 287 286 286 286 285 285 285 285 285 285 285 285 285 286 286 286 286 286 285 284 283 282 282 281 281 281 281 280 280 279 278 277 276
274 275 276 277 278 279 279 280 280 281 281 281 281 282 282 282 282 282 283 283 283 284 284 284 285 285 286 286 286 286 286 286 286 286 286 286 286 286 286 286 286 286 286 286 286 287 287 287 287 287 287 287 286 286 286 285 285 285 285 285 285 285 285 285 285 286 286 286 285 284 284 283 283 282 282 281 281 281 281 280 280 280 278 277 275 273
276 277 278 279 279 280 280 281 281 282 282 282 283 283 283 283 283 284 284 284 285 285 286 286 286 286 287 287 287 286 286 287 287 287 287 287 287 287 287 287 286 286 286 287 287 287 287 287 287 286 286 286 286 285 285 285 285 285 285 285 285 285 285 285 285 285 285 284 283 282 281 282 281 281 281 281 280 280 280 280 279 278 277 275 274 272
278 278 279 279 280 281 281 282 282 283 284 284 284 285 285 285 285 285 285 286 286 286 287 286 286 287 287 286 286 287 287 287 287 287 287 287 287 287 287 286 286 286 287 287 287 287 286 286 286 285 285 285 285 285 285 285 285 285 284 284 284 284 285 285 285 284 283 282 281 280 280 280 280 280 280 280 280 280 280 280 279 278 277 275 274 272
278 279 280 281 281 282 283 284 284 285 286 286 286 286 286 286 286 286 286 286 286 287 287 286 286 286 286 286 286 287 287 287 287 287 287 287 286 286 286 286 286 286 286 286 286 286 286 285 285 285 285 285 285 285 285 285 285 284 284 284 284 284 284 284 283 282 281 280 279 279 279 279 279 279 279 279 279 279 279 279 278 278 277 276 275 273
280 281 282 282 283 284 284 285 285 285 286 286 287 286 287 287 287 286 286 286 286 287 287 287 287 286 286 286 287 287 287 287 287 286 286 286 286 286 286 286 286 286 286 286 286 286 285 285 284 284 284 284 285 284 284 284 284 284 284 284 284 284 283 282 281 280 279 279 279 279 279 280 280 280 280 279 279 279 279 278 278 277 276 276 275 274
283 283 284 284 284 285 285 285 285 285 285 286 286 286 286 286 286 287 287 287 287 287 288 288 287 287 286 287 287 287 287 287 287 286 286 286 286 286 286 286 286 286 286 286 285 285 284 284 284 284 284 284 284 284 284 284 284 284 284 284 283 283 282 281 280 280 280 280 280 280 280 280 280 280 281 281 280 280 279 279 279 278 278 277 276 275
284 284 284 284 284 284 284 284 284 285 285 285 285 286 286 286 287 287 287 288 288 288 289 288 287 287 288 288 287 287 287 287 287 286 286 286 286 286 286 286 286 286 285 285 285 284 284 284 284 284 284 284 284 284 284 284 284 284 283 283 282 282 281 281 281 281 280 281 281 281 281 281 281 281 281 281 281 281 280 280 279 279 279 278 277 277
283 284 284 284 284 284 284 284 284 285 286 286 286 287 287 288 288 288 288 288 288 288 289 288 287 288 288 289 288 288 288 287 287 286 286 286 286 286 286 285 285 285 284 284 284 284 284 284 284 285 285 284 284 284 284 284 283 283 283 282 282 281 281 281 281 281 281 281 282 282 282 282 282 282 281 281 281 281 280 280 279 279 278 278 277 277
283 284 284 284 285 285 285 286 286 287 287 288 288 288 288 288 288 288 288 288 288 289 289 287 287 288 289 290 289 289 288 287 286 286 286 285 285 285 285 284 284 284 284 284 284 284 285 285 285 285 285 285 284 284 284 283 283 283 282 282 282 282 282 282 282 282 282 282 282 282 282 282 282 282 282 281 281 280 280 279 279 278 278 277 277 276
284 285 285 286 286 286 287 287 288 288 288 288 288 288 288 288 288 288 289 289 289 289 289 288 288 288 289 290 289 288 287 287 286 286 286 285 285 285 285 285 285 285 285 285 285 286 286 286 286 285 285 285 285 285 284 284 284 283 283 283 283 283 283 283 283 283 283 283 283 283 283 282 282 282 282 281 281 280 279 279 278 278 277 277 276 276
286 286 286 286 287 287 288 288 288 289 289 289 289 288 288 288 288 289 289 289 289 289 289 288 288 288 289 289 288 288 288 288 287 287 287 286 286 286 286 286 286 286 286 286 287 287 286 286 286 286 285 285 285 285 285 284 284 284 283 283 283 283 283 283 283 283 283 283 283 283 282 282 282 281 281 280 280 279 279 279 278 278 277 277 276 276
289 289 288 288 288 288 289 289 290 290 290 290 290 290 289 289 288 288 289 288 289 289 289 289 289 290 291 291 290 289 289 289 289 288 287 287 287 287 287 287 287 287 287 287 287 286 286 286 286 285 285 285 285 284 284 284 283 283 283 283 283 283 283 283 283 283 282 282 282 282 282 281 281 281 280 280 280 279 279 279 278 278 278 277 277 276
291 291 292 292 292 292 292 292 292 292 292 292 291 291 291 290 290 290 290 290 290 291 291 291 291 291 292 291 291 290 290 289 288 287 287 287 287 287 286 286 286 286 286 286 286 286 285 285 285 285 284 284 284 284 283 283 283 283 283 283 283 282 282 282 282 282 282 282 282 282 282 282 282 282 282 281 281 280 280 280 279 278 278 277 277 276
291 291 292 292 293 293 293 293 293 293 293 293 293 293 293 293 293 293 293 292 292 292 292 292 292 292 292 291 291 290 289 289 288 288 287 287 287 287 286 286 286 286 286 285 285 285 285 284 284 284 284 284 283 283 283 283 283 283 283 283 283 283 283 283 283 283 283 283 283 284 283 283 283 283 283 282 282 281 281 280 279 279 278 277 276 276
292 292 292 292 293 293 294 295 295 295 295 295 295 295 295 295 295 295 295 295 294 293 293 293 292 292 292 291 291 290 289 288 288 287 287 287 287 286 286 286 285 285 285 285 285 284 284 284 284 284 284 284 283 283 283 283 283 284 284 284 284 284 284 284 284 284 284 284 284 284 284 284 283 283 283 283 282 282 281 280 280 279 278 278 277 276
295 295 295 295 296 297 298 298 299 299 299 299 298 298 297 297 297 297 297 297 296 295 295 293 293 293 292 291 290 289 289 288 288 287 287 287 286 286 286 286 285 285 285 285 285 284 284 284 284 284 284 284 284 284 285 285 285 285 285 285 285 285 284 284 284 284 284 284 284 284 284 284 284 284 284 283 283 283 282 282 281 280 279 278 277 276
300 301 300 300 301 302 302 302 303 302 302 301 300 299 299 298 298 298 298 297 296 295 294 294 293 292 291 291 290 289 289 288 287 287 287 287 287 286 286 286 286 286 286 285 285 285 285 285 285 285 285 285 285 286 286 285 285 285 285 285 285 285 285 285 285 285 285 285 285 285 285 285 285 285 285 285 284 284 283 283 282 281 280 279 278 277
306 306 304 303 304 304 304 304 304 303 302 301 300 299 298 298 298 297 297 296 295 294 293 292 292 291 291 290 290 289 288 288 287 287 287 287 287 287 287 287 287 287 287 286 286 286 286 287 286 287 287 287 287 287 286 286 286 286 286 286 286 286 286 286 286 286 286 286 286 286 286 286 286 285 285 285 284 284 283 283 282 282 281 281 280 279
309 309 307 304 304 303 303 303 303 302 302 301 300 300 299 299 298 298 298 297 296 295 294 293 293 292 292 292 291 291 290 290 290 289 289 289 289 289 289 289 288 288 288 288 288 288 288 288 288 288 288 287 287 287 287 287 287 287 286 286 286 286 286 287 287 286 286 286 286 286 286 286 285 285 285 285 284 284 284 283 283 282 282 281 280 279
309 309 308 306 305 305 305 305 305 304 303 303 302 302 301 301 300 300 300 300 299 298 298 297 295 295 294 293 293 292 292 291 291 291 291 290 290 289 289 289 288 288 288 288 288 288 288 287 287 287 287 286 286 286 286 286 286 286 286 286 286 286 286 286 286 286 286 286 286 286 286 286 286 285 285 285 285 284 284 283 283 282 281 281 280 279
311 311 311 311 310 309 308 309 308 307 306 304 303 303 302 302 301 301 300 300 299 299 298 297 297 296 295 293 292 292 291 291 291 290 290 289 289 288 288 288 287 287 287 287 286 286 286 286 286 286 285 285 285 285 285 286 286 286 286 286 286 286 286 286 287 287 287 287 287 287 286 286 286 286 285 285 284 284 284 283 283 282 282 281 281 280
315 315 315 313 311 310 309 309 308 306 305 304 303 302 302 301 301 300 300 299 297 297 296 295 295 295 294 292 291 291 291 290 289 289 288 288 288 287 287 287 286 286 286 286 286 286 286 286 286 286 286 286 286 286 286 286 286 286 287 287 287 287 287 287 287 287 287 287 287 287 286 286 286 285 285 285 285 285 284 284 284 284 283 283 282 282
316 315 314 312 310 308 308 308 307 305 304 304 303 302 301 301 300 299 299 297 296 295 294 293 293 293 293 292 291 291 290 290 289 289 288 288 288 288 287 287 287 287 287 287 287 287 287 287 286 286 287 287 287 287 287 287 287 287 287 287 287 287 287 287 287 287 287 286 286 286 286 286 286 286 285 285 285 285 285 285 285 285 284 284 283 283
315 314 312 310 308 306 306 305 304 303 302 301 301 300 300 299 299 298 298 297 296 295 294 294 294 294 293 293 292 292 291 291 290 290 290 289 289 289 289 288 288 288 288 288 288 288 288 287 287 287 288 288 287 287 287 287 287 287 287 287 287 287 287 287 287 287 287 287 287 287 286 286 286 286 286 286 286 286 286 286 286 286 285 285 284 284
315 314 313 312 310 308 307 305 303 302 301 300 299 299 299 299 299 298 298 297 297 296 296 295 295 295 295 294 294 293 293 293 292 292 291 291 290 290 290 290 290 289 289 289 289 289 289 288 288 288 288 288 288 288 288 288 288 288 288 288 288 288 287 287 287 287 287 287 287 287 287 287 287 287 287 287 287 287 287 287 287 287 286 286 285 285
316 315 315 313 312 311 311 309 308 307 305 304 303 302 301 301 300 300 299 298 298 298 297 297 297 296 296 296 295 295 295 294 294 293 293 292 292 291 291 291 290 290 290 290 290 290 289 289 289 289 289 289 289 288 288 288 288 288 288 288 288 288 288 288 288 288 288 288 288 288 288 288 288 288 288 288 288 289 288 288 288 288 287 287 287 286
317 316 315 314 313 312 312 311 310 309 308 307 306 305 304 304 303 302 301 300 300 300 299 299 298 298 297 297 297 296 296 295 295 294 294 293 292 292 292 292 292 292 291 291 291 291 290 290 290 290 290 289 289 289 289 289 289 289 289 289 289 289 289 289 289 289 289 289 289 289 289 289 289 289 289 289 289 289 289 289 289 288 288 288 287 287
317 316 316 315 313 313 313 312 311 311 310 309 309 308 307 306 305 303 303 302 301 301 300 299 299 298 298 297 297 297 296 296 295 295 294 294 293 293 294 293 293 293 292 292 291 291 290 290 290 290 290 290 289 289 289 289 289 289 289 289 289 289 289 289 289 289 289 289 289 289 290 290 290 290 290 290 290 290 290 289 289 289 289 288 287 286
318 317 316 316 314 314 313 313 312 312 311 311 310 309 309 307 306 305 304 303 302 301 301 300 300 299 299 298 298 298 297 297 296 296 295 295 295 295 295 294 293 293 293 292 292 292 291 291 291 291 291 290 290 290 290 290 290 290 290 290 290 290 290 290 290 290 290 290 290 291 291 291 291 291 291 290 290 290 290 289 289 289 288 288 287 286
319 318 318 317 316 315 315 314 313 313 312 311 310 310 309 308 307 307 306 305 304 303 303 302 302 301 301 300 300 299 299 298 298 297 297 297 297 296 296 295 295 295 294 294 294 293 293 293 292 292 292 292 292 292 291 291 291 291 291 291 291 291 291 291 291 291 291 291 291 291 291 291 292 291 291 291 291 291 290 290 289 289 289 288 288 288
320 320 319 319 317 316 315 314 313 312 312 311 310 310 310 310 309 309 308 306 305 304 303 302 302 301 301 300 300 300 299 299 299 298 298 298 298 297 297 297 296 296 296 295 295 295 294 294 294 294 294 294 293 293 293 293 293 293 293 293 293 293 293 292 292 292 293 293 293 293 293 293 292 292 292 291 291 291 291 291 291 291 291 291 290 289
322 321 320 319 318 316 315 314 313 312 312 312 311 311 310 310 309 308 306 305 304 303 303 302 302 301 300 300 299 299 298 298 298 298 298 298 298 297 297 297 296 296 296 296 295 295 295 295 295 294 294 294 294 294 294 294 294 294 294 294 294 294 294 294 294 294 294 294 294 293 293 293 292 292 292 292 292 293 293 293 293 293 292 292 290 289
322 321 320 319 318 317 316 315 314 314 313 312 311 310 309 308 308 308 307 305 304 305 305 304 303 302 301 301 300 300 299 299 299 299 298 298 298 298 297 297 297 297 296 296 296 295 295 295 294 294 294 294 294 294 293 293 293 293 294 294 294 294 294 294 294 294 293 293 293 293 293 293 293 293 293 294 294 294 294 294 293 292 291 291 289 289
322 321 320 319 319 318 317 317 316 315 313 313 312 312 313 313 313 315 314 312 311 312 311 310 310 309 308 307 306 305 304 304 302 302 301 301 300 299 299 298 298 297 297 296 296 295 295 295 295 294 294 294 294 294 294 293 293 294 294 294 293 293 293 293 293 293 293 293 293 293 293 294 294 294 294 295 294 294 293 293 292 291 290 290 289 289
322 322 321 321 320 320 320 320 319 319 318 318 319 319 319 320 320 321 320 318 318 318 317 316 316 314 313 312 311 310 309 308 307 306 305 304 303 302 301 300 300 299 298 298 297 297 296 296 296 296 295 295 295 295 295 295 294 294 294 294 294 294 294 294 294 294 294 294 294 294 294 295 295 295 294 294 294 293 292 292 291 291 291 291 290 290
324 324 324 324 324 324 324 325 325 325 325 324 324 324 324 324 323 323 322 321 321 321 320 318 317 316 315 315 313 313 312 311 310 309 308 307 306 305 304 303 303 302 301 301 300 299 299 298 298 297 297 297 296 296 296 296 295 295 295 295 295 295 295 295 295 294 295 295 295 295 295 295 294 294 294 293 292 292 291 291 292 292 292 292 291 290
327 327 328 328 329 329 329 330 330 329 329 329 329 328 327 327 326 327 326 325 324 323 322 321 320 319 318 317 316 315 314 313 312 311 310 309 308 307 306 306 305 304 304 303 302 301 301 300 300 299 299 298 298 297 297 296 296 296 296 296 296 296 296 295 295 296 296 295 295 295 294 294 294 293 293 293 292 292 292 293 293 293 293 292 291 291
330 331 332 332 333 333 333 333 333 333 333 333 332 331 330 330 329 329 329 328 327 326 325 324 323 322 321 320 319 317 316 315 314 313 312 311 310 309 308 308 307 306 305 305 304 303 303 302 301 301 300 300 299 299 298 298 297 297 297 297 297 297 297 297 297 297 296 296 296 295 295 295 295 294 294 294 293 294 294 294 295 294 294 293 292 292
333 334 335 335 336 336 336 337 337 336 336 335 334 333 333 332 331 331 331 330 329 328 328 327 326 325 324 323 322 321 319 318 317 316 315 313 312 311 310 309 308 307 306 306 305 305 304 303 303 302 302 301 301 301 300 300 299 299 299 299 298 298 298 298 297 297 297 297 297 297 297 296 296 296 295 295 295 296 296 296 296 296 295 294 293 293
336 337 338 338 338 339 339 339 339 338 337 336 336 335 335 334 333 332 332 331 331 330 329 329 328 328 327 326 325 324 323 321 320 319 317 316 315 313 312 311 310 309 308 307 307 306 305 305 304 304 303 303 302 302 301 300 300 300 300 299 299 299 299 298 298 298 298 298 298 298 298 298 297 297 297 297 297 297 297 297 297 296 295 294 293 293
339 340 340 341 341 341 340 340 340 339 338 337 337 336 335 335 334 334 333 332 332 332 331 330 329 328 328 327 326 325 324 323 323 321 320 319 318 316 315 314 313 312 311 310 309 308 307 306 305 305 304 304 303 302 302 301 301 301 301 301 300 300 300 300 300 300 300 300 300 299 299 299 298 298 298 298 298 298 298 298 297 296 295 294 293 292
341 342 342 343 343 342 341 341 341 341 340 339 339 338 337 337 336 336 335 335 334 334 332 331 330 329 328 328 327 326 326 325 324 324 323 321 320 319 318 317 316 315 314 313 312 311 310 309 308 307 307 306 306 305 304 304 303 303 303 303 303 302 302 302 302 301 301 301 300 300 300 299 299 299 298 299 299 299 299 299 298 298 296 294 293 293
343 343 344 345 344 344 344 343 342 343 343 342 341 340 340 340 339 339 338 337 336 335 334 333 332 331 330 329 328 327 327 326 325 325 324 323 322 321 320 320 319 318 317 316 315 314 313 312 311 311 310 309 309 308 307 306 306 305 305 305 305 304 304 303 303 303 302 302 302 301 301 300 300 300 300 300 300 300 300 300 300 299 297 295 293 294
345 345 345 346 345 345 345 344 344 344 344 344 343 343 342 342 342 341 341 340 339 338 336 335 334 333 332 331 329 329 328 327 326 326 325 324 324 323 322 321 321 320 319 318 317 316 316 315 314 313 312 312 311 310 309 308 308 308 307 307 306 306 305 305 305 305 304 304 303 302 302 301 301 302 302 302 302 302 302 302 302 301 299 296 294 294
347 347 346 346 347 347 347 346 346 346 346 345 345 344 344 344 344 343 343 342 341 340 339 337 336 335 334 332 331 330 330 329 328 328 328 327 326 325 324 323 323 322 321 321 320 319 318 317 316 315 315 314 313 312 311 311 310 310 309 309 309 308 307 307 307 306 305 305 304 304 303 303 303 304 304 304 304 303 303 304 304 303 300 297 296 296
348 348 347 347 347 348 348 348 348 347 347 347 346 346 346 346 345 344 344 343 342 341 340 339 338 337 336 335 334 333 332 331 331 330 330 329 328 327 326 326 325 324 324 323 322 322 321 320 319 318 317 316 315 314 314 313 312 312 312 311 311 310 309 308 307 307 306 306 306 306 306 306 306 306 307 307 306 306 306 306 305 304 301 298 296 297
349 349 349 348 348 349 349 350 349 348 348 348 348 348 347 347 346 345 345 344 344 343 342 341 340 339 338 338 337 335 334 333 332 331 331 331 330 329 328 327 327 326 326 325 325 324 323 322 321 320 319 318 317 316 316 315 315 314 314 313 312 311 310 309 308 308 308 308 309 309 308 308 309 309 309 309 308 307 308 308 307 305 301 298 297 297
349 350 350 349 349 349 350 350 350 350 349 349 349 349 348 348 347 347 346 346 345 344 344 343 342 341 340 339 339 337 336 335 333 333 332 332 331 330 330 329 329 328 327 327 326 326 325 324 323 322 321 320 319 318 318 317 316 315 315 314 313 312 312 311 311 311 311 311 312 311 311 311 311 311 311 311 310 308 308 308 309 308 304 300 299 298
350 350 350 350 350 350 350 350 351 351 351 351 351 350 350 349 349 348 347 347 346 346 346 345 344 343 341 341 340 339 337 336 335 334 333 333 333 332 331 331 330 330 329 328 328 328 327 325 324 323 323 322 321 320 319 318 317 316 316 315 315 314 313 313 313 313 314 314 314 314 313 313 313 313 313 312 311 310 309 308 309 309 306 303 301 300
350 350 351 351 351 351 351 351 352 352 352 352 352 352 352 351 350 349 349 348 348 347 346 346 345 344 343 342 341 340 339 338 337 335 335 334 334 334 333 332 332 331 330 330 330 329 328 327 326 325 325 324 323 322 321 319 318 318 317 317 316 316 316 315 315 316 316 317 317 316 316 315 315 315 314 314 313 312 311 309 309 309 307 304 303 302